Wind_Speed
43 42 41 40 39 38 38 37 36 35 34 34 34 35 35 34 34 34 34 33 32 32 32 32 32 31 31 30 29 29 29 28 29 29 30 31 33 34 35 36 38 40 41 42 43 44 45 46 46 46 46 47 46 46 45 46 47 49 50 50 51 52
44 43 43 42 41 41 40 38 37 37 36 36 35 36 36 36 36 36 36 36 35 35 35 34 34 34 33 33 32 31 30 30 31 31 32 33 34 35 36 38 39 41 42 43 45 46 46 47 47 46 46 46 46 45 45 46 48 49 49 50 51 51
46 46 45 45 44 43 42 41 40 40 39 39 38 38 37 37 38 38 39 39 38 38 38 37 37 36 36 35 35 33 33 33 33 33 34 35 36 37 38 39 41 42 43 44 46 47 47 47 47 46 46 45 45 44 45 45 46 47 48 49 49 49
48 48 48 48 47 46 45 44 43 43 43 42 42 41 40 40 41 41 41 41 40 40 40 40 39 38 38 38 37 36 35 35 35 36 36 37 38 39 39 41 42 43 44 46 47 48 48 47 46 45 45 44 43 42 43 43 44 45 46 47 48 48
47 48 49 50 49 49 48 47 46 46 45 45 44 44 44 44 44 45 44 44 43 43 43 43 42 41 41 41 40 39 38 37 38 38 39 39 40 40 41 42 44 45 46 47 48 48 48 46 45 44 43 41 40 39 40 41 42 43 45 46 47 49
49 49 49 49 50 50 50 49 49 48 47 47 47 47 47 47 47 47 47 47 46 46 46 46 45 44 44 43 42 41 40 40 40 40 41 41 41 42 43 44 45 46 48 48 48 48 47 45 44 42 40 37 36 37 38 39 41 43 44 46 47 49
53 53 52 52 51 50 50 50 50 50 49 49 49 49 49 49 48 49 49 49 49 49 49 48 48 47 46 45 44 43 42 42 42 42 42 42 43 44 45 46 47 48 49 49 49 47 45 43 41 39 35 34 34 35 37 39 41 43 44 45 47 48
53 55 56 57 57 55 54 53 52 52 51 51 51 50 51 51 50 51 51 51 51 51 51 50 50 49 48 47 46 45 45 44 44 44 44 44 45 46 47 47 48 49 50 49 48 46 43 41 38 34 32 33 34 35 37 39 41 43 44 45 46 47
53 55 57 59 60 60 60 58 56 56 55 54 54 53 52 52 52 52 53 53 53 53 52 52 51 51 50 49 48 48 47 46 46 46 46 47 47 47 48 49 50 51 50 50 48 45 41 38 34 31 31 33 34 35 38 40 42 43 43 44 45 45
50 53 56 58 59 60 61 61 61 60 59 58 57 56 55 55 54 54 54 54 54 54 54 53 53 53 52 52 51 50 50 49 48 48 49 49 49 49 50 50 51 51 51 51 48 44 39 34 32 31 32 32 34 36 38 40 42 42 42 43 43 42
46 51 55 58 60 60 60 61 63 63 63 63 62 61 60 59 58 57 57 56 55 55 55 55 55 54 54 54 54 53 52 51 51 50 51 51 51 51 51 51 52 52 52 51 47 42 37 33 32 32 32 33 34 36 38 40 41 41 41 41 40 39
45 49 53 57 60 62 62 62 63 64 64 65 66 65 65 64 62 60 59 58 57 57 57 56 56 56 56 56 56 55 54 53 53 52 53 53 53 53 53 52 53 53 53 51 46 40 36 34 33 33 33 34 35 37 39 39 39 39 38 38 37 36
47 48 51 55 57 61 63 64 65 66 66 67 67 67 67 66 64 63 61 60 59 59 58 58 58 57 57 58 57 56 55 55 55 55 55 55 55 54 54 54 54 54 53 51 45 39 37 35 34 34 34 35 36 37 38 38 37 37 36 36 35 34
52 50 51 52 54 57 60 62 65 67 68 68 68 67 66 66 65 64 63 62 62 61 61 60 60 60 59 59 58 57 57 57 57 57 57 56 56 55 55 55 54 54 53 50 44 40 39 38 36 35 36 36 36 36 36 36 35 35 34 33 32 32
57 54 51 52 53 55 57 60 63 65 66 67 68 67 66 65 65 64 64 64 64 63 63 63 62 62 61 60 59 58 58 58 59 59 58 57 57 56 56 55 55 55 53 49 44 42 41 40 38 37 37 36 35 35 34 34 33 32 31 31 29 29
58 57 54 53 54 56 59 61 62 62 63 64 64 64 64 64 64 64 64 65 65 65 65 64 64 63 62 61 60 59 59 60 60 60 59 59 58 57 57 56 56 55 53 49 45 44 43 43 41 39 38 36 35 35 33 33 32 29 27 27 26 26
59 60 59 57 57 58 60 61 62 62 62 62 62 61 61 61 62 62 63 65 66 65 65 64 64 63 62 61 60 60 61 61 62 62 61 60 59 59 58 56 55 54 52 49 47 45 45 45 43 41 39 37 35 34 32 31 30 27 25 25 25 25
62 64 64 63 60 59 59 61 63 64 63 61 60 59 59 59 59 60 62 64 65 65 64 63 62 62 61 62 62 62 63 63 63 63 62 61 60 59 58 56 55 54 52 50 48 47 47 47 45 42 39 37 36 34 32 30 29 27 27 27 26 27
65 67 68 66 63 61 60 61 63 64 63 61 60 59 57 57 57 59 62 64 64 65 64 62 61 61 62 63 63 64 64 65 65 65 63 62 60 59 58 56 55 54 52 51 50 49 48 48 46 43 41 39 37 35 32 30 30 30 29 28 28 28
65 67 68 67 65 64 63 62 63 62 61 61 62 61 59 56 56 59 62 63 63 64 63 63 63 63 64 65 65 66 66 66 67 67 65 63 60 59 58 57 56 54 52 52 52 50 49 48 47 45 43 40 38 37 35 33 33 33 32 30 29 29
63 65 67 67 66 65 65 64 63 61 59 60 62 63 60 59 60 62 64 64 65 66 66 66 66 66 66 66 66 67 67 68 68 68 66 63 60 59 58 57 56 54 53 53 52 51 50 50 48 47 45 42 40 39 38 37 37 37 35 33 32 32
61 62 64 65 66 65 65 65 63 60 58 58 60 60 60 61 65 67 67 68 68 68 68 67 67 66 66 66 66 67 67 68 69 68 66 63 61 60 59 58 55 54 53 53 53 52 51 51 50 48 46 44 42 41 40 40 40 40 39 37 35 35
62 61 61 62 64 65 65 64 62 59 58 58 58 57 58 62 65 65 65 66 65 65 64 64 64 64 64 64 65 66 67 68 68 67 65 63 62 61 60 58 55 54 54 53 53 53 53 52 51 50 48 47 45 43 42 43 42 43 42 41 39 38
64 63 62 62 63 63 64 64 62 59 59 58 57 57 59 61 61 61 62 62 61 61 61 61 61 62 62 63 64 65 66 67 66 64 62 62 61 61 59 57 55 53 53 53 53 54 53 52 52 52 50 49 47 46 45 45 45 45 45 45 43 42
64 63 63 63 63 64 65 65 64 62 61 59 58 59 62 61 60 59 60 59 58 58 58 58 58 59 60 62 63 65 66 66 64 61 60 60 61 60 59 56 54 52 52 53 54 54 53 53 54 53 51 50 49 48 48 48 48 47 47 47 46 44
64 62 61 61 62 63 65 66 66 64 63 61 60 61 62 61 60 59 58 56 55 54 55 56 57 58 59 60 62 64 66 65 63 60 58 59 59 58 57 55 53 52 52 53 54 54 54 54 55 53 52 52 50 50 50 50 49 48 48 48 47 46
62 60 59 59 60 62 63 64 66 65 64 62 62 63 62 62 61 60 57 55 54 53 53 54 55 57 57 58 61 64 66 65 62 59 57 57 57 57 56 54 52 52 53 54 54 54 55 55 55 53 53 52 51 52 52 51 50 50 49 49 48 47
61 59 59 59 60 61 62 63 64 64 64 64 64 64 63 63 62 59 56 54 54 53 52 52 53 54 54 55 58 62 63 62 59 57 56 56 56 55 54 53 52 52 53 54 55 55 56 56 55 53 53 52 52 53 53 53 53 52 50 49 49 48
64 62 61 60 60 62 63 63 63 64 64 65 65 65 64 63 61 59 56 54 53 52 51 51 51 50 51 52 55 57 58 58 56 55 55 55 55 54 52 52 52 53 53 54 55 56 56 56 54 53 52 52 53 53 54 55 55 53 51 51 50 49
69 67 66 64 63 64 63 63 63 64 65 65 66 65 65 63 61 58 55 53 52 51 50 50 51 51 51 52 53 55 56 56 56 55 55 54 54 53 52 52 53 53 54 55 56 56 56 55 53 53 53 53 54 54 54 54 53 53 53 52 50 48
69 70 70 68 67 66 64 62 62 64 66 66 66 66 65 63 60 56 54 53 52 52 51 51 52 54 55 54 54 55 56 57 57 56 55 54 54 53 52 53 54 54 55 55 56 56 55 54 53 54 54 54 53 52 52 53 54 53 52 50 49 49
66 69 71 70 70 68 65 61 61 64 66 66 66 66 65 63 59 55 54 54 54 53 53 53 54 55 55 55 55 55 56 57 57 57 56 54 54 53 53 54 55 56 56 55 55 55 55 54 54 55 54 53 52 52 53 54 54 53 51 50 50 51
60 63 67 69 70 70 68 64 61 62 64 66 66 65 65 63 60 55 53 54 55 54 54 54 54 54 55 55 55 55 55 56 57 57 56 55 54 55 55 56 56 57 56 56 56 56 56 55 55 55 54 53 53 54 54 54 53 52 52 51 51 51
60 60 63 65 67 68 69 68 65 63 64 66 67 66 65 63 61 57 54 53 53 53 53 53 52 52 53 55 55 55 55 56 57 57 56 56 56 56 57 58 58 58 57 58 58 57 57 56 56 56 55 55 55 55 55 54 53 53 52 51 51 52
67 65 65 66 67 68 68 68 67 66 66 67 68 67 66 65 63 60 58 56 55 53 52 52 51 51 52 54 56 57 57 57 58 58 58 58 58 58 59 59 59 59 59 59 59 58 57 57 57 57 56 55 55 55 55 54 53 52 52 52 53 54
75 73 70 70 71 72 72 70 68 67 68 69 70 70 69 67 66 63 61 60 59 57 55 53 52 52 53 54 56 58 59 59 59 59 59 59 59 59 60 60 60 61 61 61 60 60 59 59 58 57 56 56 56 56 55 54 53 53 53 54 55 55
84 81 77 75 74 75 76 75 72 70 69 69 70 71 71 71 70 68 66 63 61 59 58 57 56 55 55 56 57 59 60 60 60 60 60 60 60 60 61 61 62 63 63 62 62 61 60 59 58 57 57 56 57 56 55 54 54 54 55 56 56 56
90 88 85 80 78 78 79 79 77 75 72 70 70 72 74 75 74 73 72 69 66 63 61 60 59 59 59 60 61 61 61 62 62 62 62 62 62 62 63 64 64 64 64 63 63 62 61 60 59 58 57 57 57 57 56 55 56 57 58 58 57 57
Wind_Direction
258 259 259 259 258 257 255 253 252 250 248 248 248 249 249 250 250 252 253 254 255 255 256 259 262 264 264 265 265 269 275 277 276 277 277 277 279 280 282 283 283 284 285 285 286 287 288 289 291 292 294 295 297 300 302 304 304 305 305 304 305 305
255 256 257 257 257 257 255 254 253 251 250 249 248 249 250 250 251 252 253 254 254 254 255 258 261 263 263 264 266 271 275 276 276 278 278 279 282 282 283 283 283 283 284 284 285 286 288 289 291 293 294 296 298 301 302 302 303 303 304 304 304 305
254 255 256 257 257 257 256 255 254 253 252 251 250 250 251 251 252 253 254 254 254 254 255 258 260 262 263 264 268 272 273 274 275 277 279 281 282 282 282 282 282 282 283 283 284 285 287 289 291 293 295 297 299 301 301 301 302 303 303 304 304 304
254 255 256 257 257 256 256 256 255 254 253 252 251 251 251 252 253 254 255 255 255 255 256 258 261 262 264 266 268 270 272 273 274 276 279 281 280 281 282 281 281 282 282 282 283 285 287 289 291 293 295 298 299 299 300 301 302 303 303 304 304 305
252 253 253 254 255 255 255 255 255 255 253 252 251 251 251 252 253 254 255 256 256 256 257 260 261 262 264 266 267 269 270 271 273 276 279 279 279 280 281 281 281 281 282 282 284 285 287 288 291 293 295 296 297 299 300 301 302 303 304 305 306 306
248 250 250 251 252 253 253 254 254 254 254 253 253 252 252 253 253 254 255 256 256 257 258 260 261 262 264 265 266 267 268 270 272 275 277 277 278 280 280 281 281 282 282 283 284 285 286 288 291 292 294 295 296 298 299 300 303 304 305 306 307 308
246 247 248 249 250 251 252 253 253 253 254 254 254 255 255 256 256 256 256 257 258 258 259 259 260 262 263 264 265 266 267 269 271 274 275 276 278 279 280 281 281 281 282 283 284 284 286 288 290 290 292 293 295 297 299 302 304 305 306 307 308 308
246 246 246 247 247 248 250 250 251 252 252 253 253 254 255 256 257 257 258 258 259 259 260 260 261 263 263 264 265 266 267 268 271 273 275 276 278 279 279 280 281 281 282 284 284 284 286 287 287 287 289 291 294 298 301 303 304 306 307 308 308 307
245 246 247 246 245 245 246 247 248 249 250 250 251 252 253 254 256 257 258 259 260 261 261 262 263 264 265 266 267 268 268 269 271 274 275 276 277 278 278 279 280 281 283 284 283 284 285 284 283 284 287 290 295 300 302 303 305 307 309 308 308 308
244 244 245 246 245 244 244 245 246 248 249 250 251 251 252 253 255 256 257 258 260 261 262 263 264 265 267 268 269 269 269 269 271 274 274 275 276 277 278 279 279 281 282 282 282 283 282 279 279 281 286 291 296 299 301 304 306 308 309 309 309 309
239 239 241 243 244 245 244 243 244 245 247 250 252 253 253 254 254 255 257 258 259 260 261 263 265 266 267 268 269 269 269 270 271 273 273 274 274 276 277 277 278 280 281 281 281 280 277 274 276 280 286 291 295 298 302 305 307 308 309 309 310 311
235 236 237 238 240 242 243 244 244 244 245 248 250 252 253 254 255 256 257 258 259 260 261 263 264 265 266 266 267 267 268 269 271 272 272 272 273 274 276 276 276 278 279 279 279 277 272 271 274 279 285 289 293 299 303 306 307 308 309 310 311 311
238 236 237 238 238 239 241 243 244 245 246 247 248 249 251 253 255 256 257 258 259 260 261 262 262 263 264 264 265 266 267 269 270 271 271 271 271 273 274 274 275 277 278 278 277 273 268 268 273 278 283 288 294 300 303 305 306 307 309 310 311 309
241 238 238 240 240 240 241 242 243 244 245 247 248 249 250 251 253 254 255 256 257 258 259 260 261 261 262 263 264 265 266 267 268 268 269 269 270 272 273 273 274 276 276 276 274 269 265 266 271 277 283 290 296 300 301 302 305 306 308 310 309 308
244 242 240 241 243 243 243 243 244 244 245 247 248 249 250 251 252 253 253 254 255 256 257 258 258 259 260 261 262 263 264 265 266 267 268 268 270 271 272 272 273 275 275 275 272 267 264 265 270 276 283 290 295 297 298 300 302 304 307 308 307 308
247 247 244 243 244 245 245 246 246 247 248 248 249 251 252 252 253 253 253 253 254 254 255 256 257 258 259 260 261 262 263 264 265 266 267 268 269 271 271 271 273 274 274 273 270 266 263 265 269 275 281 287 292 294 296 299 300 301 303 303 304 305
250 250 248 245 245 246 247 249 250 250 250 250 251 252 253 253 254 254 254 254 254 254 254 254 255 257 258 259 260 261 262 263 264 265 266 267 268 269 270 271 272 273 273 271 268 265 264 265 268 274 279 284 288 290 294 295 295 294 294 294 296 298
252 252 251 250 249 248 249 250 251 251 252 253 254 254 254 254 254 254 254 254 254 254 254 254 256 257 258 259 260 261 262 263 264 265 266 267 268 269 270 270 271 272 271 270 268 265 264 265 269 273 277 281 283 286 289 290 287 286 287 289 292 294
253 253 253 253 254 253 252 251 251 252 253 254 256 256 256 256 256 255 255 254 255 255 256 256 257 259 260 261 261 262 263 264 264 265 266 267 268 269 269 270 271 271 271 270 267 266 265 266 269 272 274 277 280 282 283 283 280 280 283 287 290 292
253 254 254 255 257 257 255 253 250 250 252 253 255 256 257 257 257 256 255 255 255 256 258 259 260 261 261 262 262 262 263 264 265 265 266 267 267 268 269 269 270 270 270 268 267 266 266 266 269 270 272 274 278 279 279 278 276 277 279 283 287 288
254 254 255 256 256 257 257 256 253 251 251 251 251 253 255 257 256 256 256 256 257 258 260 262 262 262 261 261 261 262 262 263 264 265 265 266 267 267 267 268 268 268 268 267 266 266 266 267 268 269 270 272 275 277 277 276 275 275 277 280 283 284
255 254 255 256 256 257 258 258 257 254 253 252 251 251 253 254 254 254 255 257 258 260 261 262 263 262 261 260 260 260 261 262 263 264 265 266 266 266 266 266 266 266 265 265 265 266 266 267 268 268 269 271 273 275 275 276 276 276 276 277 278 280
256 255 255 256 257 257 259 261 260 258 257 256 255 254 253 252 251 252 254 255 257 259 260 261 261 261 260 259 259 259 259 260 262 263 264 264 264 264 264 264 264 264 263 264 265 266 267 267 268 268 268 270 272 273 274 275 276 276 276 276 276 277
257 255 255 256 257 258 260 262 262 261 260 259 259 258 256 254 253 253 253 254 255 256 258 260 261 261 261 260 260 259 259 259 260 262 263 263 262 262 263 263 263 263 262 263 264 266 267 268 268 268 268 269 271 273 274 274 275 276 277 277 278 278
256 256 255 255 257 258 259 261 262 261 261 260 260 260 259 258 258 257 257 257 257 257 256 257 259 261 261 261 260 260 260 260 260 260 260 260 261 261 262 263 262 262 262 262 264 266 268 269 268 268 268 269 271 273 274 275 275 277 278 279 279 280
253 253 254 255 257 258 259 260 260 261 262 263 262 262 262 263 263 263 263 263 262 261 258 257 257 258 259 260 261 260 260 260 259 259 259 259 259 261 262 262 262 261 261 261 263 266 267 268 269 269 269 270 271 273 274 276 277 278 279 279 280 280
251 252 253 255 256 257 259 260 261 263 264 265 264 264 264 265 265 265 266 266 265 264 262 260 259 259 259 259 260 260 260 260 260 259 259 259 259 260 261 261 260 259 259 261 263 265 266 267 269 270 270 272 273 274 274 276 278 279 279 280 280 281
252 252 253 254 255 256 257 259 262 264 265 265 265 265 265 265 265 265 265 264 264 263 263 263 262 261 260 259 258 259 260 261 261 261 260 260 259 259 259 259 258 257 258 260 262 263 265 267 269 270 271 273 274 275 276 277 278 278 279 281 282 283
256 254 254 254 255 256 257 257 260 263 264 264 264 265 265 266 266 265 263 262 261 261 261 262 262 261 258 257 257 258 260 260 261 260 259 259 259 258 257 256 255 255 257 258 260 262 264 267 269 271 272 273 274 275 276 277 277 278 280 281 283 284
257 257 256 255 255 256 257 257 257 259 260 262 262 263 264 265 265 264 262 260 258 257 257 258 259 257 255 253 254 255 257 259 259 259 258 257 257 256 254 253 253 254 256 257 259 262 264 267 269 270 271 272 273 275 275 276 277 279 280 281 282 283
255 256 256 255 255 255 256 257 256 256 257 258 259 260 261 262 263 263 261 258 256 254 254 255 255 254 253 251 251 253 255 257 258 258 257 256 256 255 254 253 254 254 256 257 259 262 264 266 268 269 270 272 273 274 275 276 277 278 279 280 282 282
253 254 255 254 254 255 255 255 256 255 255 255 256 258 258 259 260 261 260 258 255 254 254 253 252 252 252 251 251 253 254 256 256 257 256 255 255 254 254 254 253 254 255 257 259 261 263 264 266 267 269 271 272 273 274 275 277 279 280 281 281 281
254 255 255 255 255 256 255 254 254 255 254 254 254 255 256 257 258 259 259 258 256 254 253 253 250 249 250 251 252 253 254 255 256 255 255 254 253 253 253 253 253 254 255 256 258 259 261 263 265 267 269 270 271 272 274 275 277 278 279 279 279 280
254 257 258 258 257 258 257 256 254 254 254 253 253 254 255 255 256 256 258 259 258 256 254 253 251 248 248 250 252 253 254 255 255 255 254 254 252 252 252 253 253 254 254 255 257 259 261 263 265 266 267 269 270 272 274 275 276 277 277 278 279 279
255 256 257 259 260 261 261 260 257 256 255 253 253 253 254 254 255 256 257 259 260 259 257 256 254 250 248 248 250 252 253 254 255 255 254 253 253 253 253 253 253 254 254 255 257 259 261 262 264 265 267 269 271 272 273 274 275 276 277 277 277 278
259 257 256 257 259 261 262 263 262 260 258 255 254 254 253 253 254 257 259 260 260 261 261 261 259 255 251 249 249 250 251 252 253 254 254 254 254 254 254 254 254 254 255 256 257 258 260 262 264 265 267 269 270 271 272 273 274 275 275 276 276 276
261 259 257 256 257 259 261 262 263 263 262 259 256 254 254 254 255 257 259 261 261 261 262 263 263 260 257 254 251 250 250 250 251 252 253 253 254 254 255 255 254 254 255 256 257 259 261 262 264 265 267 268 269 271 272 272 273 274 274 274 275 276
262 261 259 256 255 256 258 261 262 263 263 261 258 256 254 254 256 257 259 260 261 261 263 264 264 262 260 258 255 252 250 250 250 250 251 252 253 253 254 254 254 255 256 257 258 260 262 263 264 265 266 268 269 270 271 272 272 272 273 273 275 276
Height
5801 5803 5804 5805 5806 5807 5808 5809 5810 5811 5812 5813 5814 5814 5815 5816 5817 5818 5818 5818 5819 5819 5819 5819 5819 5819 5819 5819 5819 5819 5819 5819 5819 5818 5817 5816 5815 5814 5814 5812 5811 5810 5808 5807 5805 5804 5803 5801 5800 5798 5797 5795 5794 5793 5791 5789 5787 5785 5784 5781 5779 5777
5796 5797 5798 5799 5801 5802 5803 5804 5805 5806 5807 5808 5809 5810 5811 5812 5812 5813 5814 5814 5814 5814 5815 5815 5815 5815 5815 5815 5815 5815 5815 5815 5814 5813 5812 5811 5811 5810 5809 5807 5806 5805 5803 5802 5800 5799 5798 5796 5795 5793 5792 5791 5790 5789 5787 5784 5782 5780 5779 5777 5775 5772
5791 5792 5793 5794 5796 5796 5798 5799 5800 5802 5802 5803 5804 5805 5806 5807 5807 5808 5808 5808 5809 5810 5810 5811 5810 5810 5810 5811 5811 5811 5811 5810 5809 5809 5808 5807 5806 5805 5804 5802 5801 5800 5798 5797 5795 5794 5793 5791 5790 5789 5787 5786 5785 5784 5782 5780 5778 5776 5775 5773 5770 5768
5785 5786 5787 5788 5790 5790 5792 5793 5794 5796 5796 5797 5798 5799 5800 5800 5801 5801 5802 5803 5804 5804 5805 5805 5805 5806 5806 5806 5806 5806 5806 5805 5804 5804 5803 5802 5801 5800 5799 5797 5796 5794 5793 5792 5790 5789 5788 5787 5785 5784 5783 5782 5781 5779 5777 5776 5774 5772 5770 5768 5766 5763
5779 5780 5781 5781 5782 5784 5785 5786 5788 5789 5790 5791 5792 5793 5793 5794 5795 5795 5796 5797 5798 5799 5799 5800 5800 5801 5801 5801 5801 5801 5801 5800 5799 5799 5798 5797 5796 5794 5793 5792 5790 5789 5788 5787 5785 5784 5783 5782 5781 5780 5779 5777 5776 5775 5773 5771 5769 5767 5765 5763 5761 5758
5772 5772 5773 5774 5775 5776 5778 5779 5781 5782 5783 5784 5785 5786 5787 5788 5789 5790 5791 5792 5792 5793 5794 5794 5795 5795 5795 5795 5795 5796 5795 5795 5794 5793 5793 5792 5790 5789 5788 5787 5785 5784 5783 5782 5780 5779 5778 5777 5776 5775 5774 5773 5772 5770 5769 5767 5765 5763 5761 5758 5756 5753
5765 5765 5766 5767 5768 5769 5771 5772 5774 5775 5776 5778 5779 5780 5781 5782 5783 5784 5785 5786 5786 5787 5787 5788 5788 5789 5790 5790 5790 5790 5790 5789 5789 5788 5787 5786 5785 5784 5782 5781 5780 5779 5778 5777 5775 5774 5773 5772 5772 5771 5770 5769 5767 5766 5764 5762 5760 5758 5756 5753 5751 5748
5756 5757 5759 5759 5760 5761 5762 5764 5766 5767 5769 5770 5772 5773 5774 5775 5777 5778 5779 5779 5780 5781 5781 5782 5783 5783 5783 5784 5784 5784 5784 5783 5783 5782 5781 5780 5779 5778 5777 5776 5775 5773 5772 5771 5770 5769 5768 5767 5767 5766 5765 5764 5762 5760 5759 5757 5755 5753 5751 5748 5745 5742
5748 5749 5750 5750 5751 5752 5754 5756 5758 5758 5760 5762 5764 5766 5767 5768 5770 5771 5771 5772 5774 5775 5775 5776 5776 5777 5777 5778 5778 5778 5777 5777 5777 5776 5776 5775 5774 5773 5771 5770 5769 5767 5767 5766 5764 5764 5763 5762 5762 5761 5760 5759 5757 5756 5754 5752 5750 5747 5745 5742 5740 5737
5740 5740 5740 5740 5742 5744 5746 5748 5749 5750 5752 5753 5756 5758 5760 5761 5763 5764 5764 5766 5768 5768 5769 5769 5770 5770 5771 5771 5771 5771 5771 5771 5771 5770 5770 5769 5768 5767 5765 5764 5763 5762 5761 5760 5759 5759 5758 5758 5757 5756 5755 5754 5752 5751 5749 5747 5744 5742 5739 5736 5734 5731
5729 5730 5731 5732 5734 5736 5738 5739 5740 5742 5744 5746 5748 5750 5751 5753 5755 5756 5758 5760 5761 5762 5762 5763 5764 5764 5765 5765 5765 5765 5764 5765 5764 5764 5763 5762 5761 5760 5759 5758 5757 5756 5755 5754 5754 5754 5753 5753 5752 5751 5750 5748 5747 5746 5744 5741 5739 5736 5734 5731 5728 5726
5719 5721 5722 5724 5726 5727 5729 5730 5732 5734 5736 5738 5740 5741 5743 5744 5747 5749 5751 5753 5754 5755 5755 5756 5757 5757 5758 5757 5757 5758 5758 5758 5757 5757 5756 5755 5755 5754 5753 5752 5751 5750 5749 5748 5748 5748 5748 5747 5746 5745 5744 5743 5742 5740 5738 5736 5733 5730 5728 5726 5723 5722
5711 5712 5713 5715 5718 5719 5721 5723 5724 5725 5727 5729 5730 5732 5735 5737 5740 5742 5744 5746 5746 5747 5748 5749 5749 5750 5750 5750 5750 5750 5751 5751 5750 5750 5749 5749 5748 5748 5747 5746 5745 5744 5743 5743 5743 5743 5742 5742 5741 5740 5739 5738 5737 5735 5732 5730 5728 5725 5723 5720 5719 5717
5702 5704 5706 5708 5709 5711 5714 5715 5715 5716 5718 5720 5721 5724 5727 5730 5733 5735 5737 5738 5738 5739 5740 5741 5741 5742 5742 5742 5743 5743 5744 5744 5743 5743 5743 5742 5742 5741 5741 5740 5739 5738 5737 5737 5737 5737 5736 5736 5736 5735 5734 5732 5731 5729 5727 5724 5722 5720 5717 5715 5714 5712
5694 5696 5699 5700 5701 5703 5705 5705 5706 5709 5712 5713 5715 5718 5721 5723 5726 5727 5729 5730 5730 5731 5732 5732 5733 5734 5734 5735 5736 5736 5737 5736 5736 5736 5735 5735 5735 5734 5734 5733 5732 5732 5731 5731 5731 5731 5730 5730 5730 5730 5729 5727 5725 5723 5721 5719 5716 5714 5712 5711 5709 5707
5687 5688 5690 5693 5693 5694 5694 5695 5698 5702 5705 5706 5709 5712 5715 5717 5718 5720 5721 5721 5721 5722 5723 5724 5725 5725 5726 5727 5728 5729 5729 5729 5728 5728 5728 5728 5727 5727 5727 5726 5726 5726 5725 5725 5725 5724 5724 5724 5724 5724 5723 5721 5720 5718 5716 5714 5711 5709 5708 5706 5704 5702
5679 5679 5681 5684 5684 5685 5686 5689 5692 5694 5695 5698 5702 5705 5708 5709 5710 5712 5713 5713 5713 5714 5714 5716 5717 5717 5718 5719 5720 5720 5721 5720 5720 5720 5720 5720 5720 5720 5720 5720 5720 5720 5719 5719 5719 5718 5718 5718 5718 5718 5717 5716 5714 5713 5711 5709 5706 5704 5703 5700 5698 5696
5671 5672 5672 5674 5677 5679 5682 5684 5683 5684 5688 5691 5695 5698 5700 5702 5703 5704 5704 5704 5704 5705 5706 5708 5709 5709 5710 5711 5712 5712 5712 5712 5712 5712 5712 5712 5712 5713 5713 5713 5713 5713 5713 5713 5712 5712 5712 5712 5712 5712 5711 5710 5709 5707 5705 5703 5701 5699 5697 5695 5693 5692
5663 5664 5665 5668 5671 5674 5675 5676 5675 5677 5682 5686 5688 5690 5692 5694 5696 5697 5696 5696 5696 5697 5698 5700 5701 5702 5702 5703 5703 5704 5703 5703 5703 5703 5704 5704 5705 5705 5706 5706 5706 5706 5706 5706 5705 5705 5705 5705 5706 5705 5704 5704 5703 5701 5699 5697 5696 5693 5691 5689 5687 5687
5656 5657 5660 5663 5665 5665 5665 5664 5666 5670 5675 5679 5680 5681 5684 5687 5689 5688 5687 5688 5689 5689 5691 5692 5693 5694 5694 5694 5695 5695 5694 5695 5694 5695 5695 5696 5697 5698 5698 5699 5699 5699 5699 5699 5698 5699 5699 5699 5699 5699 5698 5698 5696 5695 5693 5691 5690 5688 5685 5683 5681 5681
5649 5651 5653 5655 5657 5656 5653 5652 5657 5664 5669 5671 5671 5672 5676 5679 5680 5678 5677 5679 5681 5682 5683 5684 5685 5686 5686 5686 5686 5686 5686 5686 5685 5686 5687 5689 5690 5691 5691 5691 5691 5691 5692 5692 5691 5692 5692 5692 5692 5692 5692 5691 5690 5688 5687 5685 5684 5682 5679 5677 5675 5674
5642 5644 5647 5648 5648 5647 5644 5644 5649 5656 5661 5662 5663 5666 5670 5670 5668 5667 5669 5671 5673 5674 5675 5676 5676 5677 5677 5677 5677 5677 5677 5677 5677 5678 5679 5681 5682 5683 5683 5683 5684 5684 5684 5685 5685 5685 5685 5685 5685 5685 5685 5684 5683 5682 5680 5678 5677 5675 5673 5671 5669 5667
5635 5638 5640 5641 5640 5639 5637 5638 5643 5649 5652 5653 5656 5660 5662 5658 5657 5659 5661 5663 5665 5665 5666 5667 5667 5667 5668 5668 5668 5668 5668 5669 5669 5670 5672 5673 5674 5675 5675 5676 5677 5677 5677 5678 5678 5678 5677 5678 5678 5678 5678 5677 5676 5675 5673 5672 5671 5669 5667 5665 5662 5660
5629 5631 5633 5634 5632 5632 5632 5631 5635 5641 5643 5645 5650 5652 5649 5647 5650 5653 5654 5654 5657 5657 5657 5658 5658 5659 5659 5659 5659 5659 5660 5660 5661 5663 5664 5665 5666 5667 5668 5669 5670 5670 5670 5670 5671 5670 5670 5671 5671 5671 5671 5670 5669 5668 5667 5665 5664 5663 5661 5659 5657 5655
5622 5623 5626 5627 5626 5626 5625 5625 5628 5633 5634 5638 5643 5641 5637 5639 5643 5644 5645 5647 5649 5649 5650 5650 5650 5650 5651 5651 5651 5651 5651 5652 5653 5655 5656 5657 5658 5660 5661 5662 5662 5663 5663 5663 5663 5663 5663 5663 5663 5663 5663 5663 5662 5661 5660 5659 5657 5656 5655 5653 5651 5649
5614 5616 5618 5619 5619 5618 5618 5618 5621 5624 5627 5631 5632 5629 5628 5632 5634 5635 5637 5639 5640 5641 5642 5641 5641 5642 5643 5643 5643 5643 5643 5644 5645 5647 5649 5650 5651 5652 5653 5654 5655 5655 5656 5656 5656 5656 5656 5656 5655 5655 5655 5655 5655 5654 5653 5652 5651 5650 5649 5647 5645 5642
5606 5608 5610 5611 5611 5610 5610 5611 5612 5616 5620 5622 5620 5618 5620 5623 5624 5626 5629 5631 5631 5633 5633 5633 5634 5635 5635 5636 5636 5635 5635 5636 5637 5639 5641 5642 5644 5645 5646 5647 5647 5648 5648 5648 5649 5649 5649 5648 5648 5648 5648 5648 5648 5647 5646 5646 5645 5643 5642 5640 5638 5636
5596 5599 5601 5603 5603 5602 5602 5603 5604 5608 5612 5612 5610 5610 5612 5614 5616 5619 5621 5622 5623 5624 5624 5625 5627 5627 5628 5628 5628 5627 5628 5628 5630 5632 5633 5635 5636 5638 5638 5639 5640 5640 5641 5641 5641 5641 5641 5640 5641 5641 5641 5641 5641 5640 5639 5639 5638 5636 5635 5633 5631 5630
5587 5590 5592 5595 5596 5594 5594 5596 5598 5601 5603 5604 5603 5603 5604 5606 5608 5611 5613 5614 5615 5615 5616 5618 5619 5619 5620 5620 5620 5620 5620 5621 5623 5624 5626 5627 5628 5629 5630 5631 5632 5632 5633 5633 5633 5633 5633 5633 5633 5633 5633 5633 5632 5632 5632 5631 5630 5629 5627 5626 5624 5623
5578 5580 5582 5586 5588 5587 5586 5589 5592 5593 5594 5595 5595 5595 5597 5599 5600 5602 5604 5605 5606 5607 5608 5610 5610 5611 5611 5611 5612 5613 5613 5613 5615 5616 5618 5619 5620 5620 5622 5622 5623 5624 5625 5625 5625 5625 5625 5626 5626 5626 5625 5624 5624 5624 5624 5624 5623 5621 5620 5618 5617 5615
5568 5569 5571 5575 5577 5577 5578 5582 5584 5585 5586 5587 5587 5588 5589 5591 5592 5594 5596 5597 5598 5599 5600 5601 5602 5603 5603 5603 5604 5604 5605 5605 5606 5608 5609 5610 5611 5612 5613 5614 5615 5616 5616 5617 5617 5617 5618 5619 5618 5618 5617 5616 5617 5617 5616 5616 5615 5614 5612 5611 5610 5608
5559 5559 5561 5565 5567 5567 5569 5574 5576 5576 5577 5578 5579 5580 5582 5583 5584 5586 5588 5589 5590 5591 5591 5592 5593 5594 5595 5595 5596 5596 5597 5598 5598 5600 5601 5602 5603 5604 5605 5606 5607 5608 5608 5609 5610 5610 5610 5610 5610 5609 5609 5609 5610 5609 5608 5608 5607 5606 5605 5604 5602 5601
5549 5550 5552 5555 5557 5557 5560 5565 5568 5568 5569 5569 5571 5572 5573 5575 5577 5579 5580 5581 5581 5582 5583 5583 5584 5585 5586 5586 5587 5588 5589 5590 5591 5592 5593 5594 5595 5596 5597 5598 5599 5600 5600 5601 5601 5602 5602 5602 5601 5601 5602 5602 5601 5601 5600 5600 5599 5598 5597 5595 5594 5593
5539 5541 5544 5546 5548 5549 5551 5555 5558 5560 5560 5559 5561 5563 5565 5566 5568 5570 5572 5572 5573 5574 5574 5575 5576 5576 5577 5578 5579 5580 5581 5583 5584 5585 5586 5587 5588 5589 5589 5590 5591 5592 5592 5593 5593 5593 5594 5594 5594 5594 5593 5593 5593 5593 5593 5592 5591 5590 5589 5587 5586 5585
5529 5532 5535 5537 5538 5539 5541 5544 5549 5551 5550 5550 5551 5553 5555 5558 5559 5561 5563 5564 5564 5565 5566 5567 5568 5568 5568 5570 5571 5572 5573 5575 5576 5577 5579 5580 5581 5581 5581 5582 5583 5584 5585 5585 5585 5586 5586 5585 5585 5585 5585 5586 5585 5585 5584 5583 5583 5582 5581 5579 5578 5576
5519 5522 5526 5528 5529 5530 5531 5534 5538 5540 5539 5541 5543 5544 5546 5548 5550 5551 5553 5554 5555 5557 5558 5559 5560 5560 5561 5562 5563 5564 5565 5566 5568 5570 5571 5572 5573 5574 5574 5575 5576 5576 5577 5577 5577 5577 5577 5577 5577 5577 5578 5577 5577 5576 5575 5575 5574 5573 5572 5571 5569 5567
5508 5512 5515 5518 5520 5520 5521 5524 5528 5529 5529 5531 5534 5535 5537 5539 5540 5541 5543 5545 5546 5547 5549 5550 5552 5552 5553 5554 5554 5555 5557 5558 5559 5561 5562 5563 5565 5566 5566 5567 5567 5568 5568 5568 5568 5568 5568 5569 5569 5569 5569 5569 5568 5567 5567 5567 5566 5565 5563 5561 5560 5559
5496 5500 5504 5507 5509 5509 5511 5515 5518 5518 5518 5521 5523 5525 5527 5529 5530 5531 5533 5535 5536 5538 5539 5540 5542 5543 5544 5545 5546 5546 5548 5549 5550 5552 5553 5554 5555 5556 5557 5558 5558 5559 5560 5560 5560 5560 5560 5560 5561 5561 5560 5560 5559 5559 5559 5559 5558 5556 5554 5552 5552 5551